[Date Prev][Date Next][Thread Prev][Thread Next] - [Date Index][Thread Index][Author Index]

2 Line ISS Keps 7-16



ISS
1 25544U 98067A   05196.97375632  .00011578  00000-0  92245-4 0  9160
2 25544 051.6439 113.4537 0003451 125.5087 338.2739 15.71705867380211
----
Via the sarex mailing list at AMSAT.ORG courtesy of AMSAT-NA.
To unsubscribe, send "unsubscribe sarex" to Majordomo@amsat.org



AMSAT Top AMSAT Home